This is the latest recevied weather packets stored in our database for station/object F5HCC-10. If no packets are shown the sender has not sent any weather packets the latest 10 day(s).
| Time | Temp. | Humidity | Pressure | Rain* | Wind** | Luminosity | Snow |
|---|---|---|---|---|---|---|---|
| 1778151896 | 25.56° C | 30% | 1017.3 hPa | - | - | - | - |
| 1778150996 | 25.56° C | 31% | 1017.3 hPa | - | - | - | - |
| 1778150095 | 25.56° C | 30% | 1017.3 hPa | - | - | - | - |
| 1778149195 | 25.56° C | 31% | 1017.4 hPa | - | - | - | - |
| 1778148295 | 25° C | 31% | 1017.4 hPa | - | - | - | - |
| 1778147395 | 25° C | 31% | 1017.4 hPa | - | - | - | - |
| 1778146495 | 25° C | 31% | 1017.3 hPa | - | - | - | - |
| 1778145595 | 25° C | 31% | 1017.3 hPa | - | - | - | - |
| 1778144694 | 25.56° C | 31% | 1017.3 hPa | - | - | - | - |
| 1778143794 | 25° C | 31% | 1017.2 hPa | - | - | - | - |
| 1778142894 | 25° C | 30% | 1017.2 hPa | - | - | - | - |
| 1778141994 | 25° C | 32% | 1017.1 hPa | - | - | - | - |
| 1778141094 | 25° C | 30% | 1017.1 hPa | - | - | - | - |
| 1778140193 | 25° C | 30% | 1017.1 hPa | - | - | - | - |
| 1778139293 | 25° C | 30% | 1017 hPa | - | - | - | - |
| 1778138393 | 25° C | 30% | 1016.9 hPa | - | - | - | - |
| 1778137493 | 25° C | 30% | 1016.9 hPa | - | - | - | - |
| 1778136593 | 25° C | 30% | 1016.8 hPa | - | - | - | - |
| 1778135693 | 25° C | 30% | 1016.7 hPa | - | - | - | - |
| 1778134793 | 25° C | 29% | 1016.6 hPa | - | - | - | - |
| 1778133893 | 25° C | 29% | 1016.5 hPa | - | - | - | - |
| 1778132993 | 24.44° C | 31% | 1016.5 hPa | - | - | - | - |
| 1778132093 | 26.11° C | 28% | 1016.3 hPa | - | - | - | - |
| 1778131193 | 26.11° C | 28% | 1016.4 hPa | - | - | - | - |
| 1778130292 | 26.11° C | 28% | 1016.2 hPa | - | - | - | - |
* Rain since midnight (hover to see other rain measurements)
** Current wind speed in m/s (hover to see current wind gust speed)